COSMOS 1275 DEB, 42126

Orbit data source: Space-Track

COSMOS 1275 DEB, 42126 is space debris in LEO originally from a launch on Thu, 04 Jun 1981 UTC launched from the Plesetsk Missile And Space Complex (PKMTR). Debris objects in space refer to the collection of defunct objects orbiting the Earth. Examples of debris include non-operational satellites, rocket bodies, and fragments generated from explosions, collisions, or faulty payload assembly.

Loading next visibility...
Identifier
42126, 1981-053QN
Orbit
LEO
Country
Flag of CISCIS
Related business
Manufacturer
Unknown
Mission
Spacecraft
Bus & Motor
Unknown
Mass
Unknown
Launch date (UTC)
1981-06-04 (45 years ago)
Launch vehicle
Unknown
Launch site
Plesetsk Missile And Space Complex (PKMTR)
Object type
Payload
Rocket body
Debris
Shape & HBR
Unknown shape, 0.1 m
Radar Cross Section
Small (<0.1 m²)

Expand to show TLE details & history
Last TLE update: 18 hours ago

TLE from 18 hours ago
0 COSMOS 1275 DEB
1 42126U 81053QN  26037.10126451  .00001775  00000-0  22315-2 0  9995
2 42126  83.1669 163.7581 0162316 155.6605 333.2404 13.58136549603955
Epoch: 2026-02-06T02:25Z
TLE epoch observation values (Epoch: 2026-02-06T02:25:49.253Z)
Latitude
51.53323°
Longitude
162.42994°
Altitude
943.608 km
Speed
7.438 km/s
True Right ascension
22h 20m 30s
True Declination
51° 22' 12"
Sunlit
Object was in daylight at epoch
Visualization orbit readout
Latitude
Unknown
Longitude
Unknown
Altitude
Unknown
Speed
Unknown
Apparent Right ascension
Unknown
Apparent Declination
Unknown
Sunlit
N/A
Visualization observer readout
Local Sidereal Time
22:26:35
Azimuth
Unknown
Elevation
Unknown
Doppler factor
Unknown
Orbital elements
Apogee altitude
1,160.037 km
Perigee altitude
919.232 km
Semi-major axis
7,417.772 km
Eccentricity
0.01623
Inclination
83.1669°
RAAN
163.7581°
Arg. of periapsis
155.6605°
True anomaly
332.38753°
Mean anomaly
333.2404°
Eccentric anomaly
332.81552°
Mean motion
3.39729 °/min
Orbital period
105.97 mins
BSTAR
0.0022315
Loading maneuver chart data...
Computing Atmospheric mass density...
Loading historical data...
Loading historical data...
Loading historical data...
Loading historical data...
Loading historical data...
Loading historical data...
Loading historical data...

Documentation

Showing up to 5 results
|